Location: Las Vegas
(36.1750°N, 115.1360°W)
Time: 18:49:23
(UTC-07:00)

Amateur Radio Satellites - All Passes

Search period start: 01 September 2014 18:19
Search period end: 02 September 2014 18:19
Location: Las Vegas, 36.1750°N, 115.1360°W

Satellite Date Start Highest point End Downlink Frequencies (MHz)
Time Altitude Azimuth
RS-15 01 Sep 18:22:49 18:32:32 36° 254° (WSW) 18:42:39 29.354 - 29.394 USB, Beacon 29.352 USB
AO-7 01 Sep 18:24:51 18:27:16 11° 270° (W) 18:29:43 29.400 - 29.500 MHz
Hamsat 01 Sep 18:50:19 18:53:32 20° 266° (W) 18:56:47 145.90 MHz
OPAL 01 Sep 19:04:19 19:05:23 11° 302° (WNW) 19:06:28 ?
STRAND 1 01 Sep 19:09:25 19:14:22 49° 100° (E) 19:19:19 ?
HO-68 01 Sep 19:38:02 19:43:32 25° 61° (ENE) 19:49:01 435.675 MHz FM
SO-67 01 Sep 19:48:00 19:50:47 23° 264° (W) 19:53:36 435.3500 MHz FM
UKube-1 01 Sep 20:46:03 20:49:53 32° 71° (ENE) 20:53:44 145.840 MHz, 145.915 MHz
STRAND 1 01 Sep 20:49:49 20:53:08 18° 295° (WNW) 20:56:28 ?
Oscar 11 01 Sep 20:50:23 20:53:41 22° 69° (ENE) 20:57:00 145.825 FM, Beacon 2401.500 USB
Saudisat 1A 01 Sep 21:18:47 21:22:46 34° 114° (ESE) 21:26:46 436.775 MHz
FUNcube-1 01 Sep 21:22:47 21:25:38 18° 68° (ENE) 21:28:31 145.950 - 145.970 MHz USB
HO-68 01 Sep 21:23:41 21:30:42 59° 258° (WSW) 21:37:44 435.675 MHz FM
MaSat-1 01 Sep 21:44:05 21:47:48 25° 56° (ENE) 21:51:06 437.345 MHz
KITSAT 1 01 Sep 22:16:26 22:23:58 45° 109° (ESE) 22:31:32 435.175 FM
UKube-1 01 Sep 22:23:01 22:26:07 19° 265° (W) 22:29:13 145.840 MHz, 145.915 MHz
Oscar 11 01 Sep 22:25:56 22:29:40 28° 263° (W) 22:33:27 145.825 FM, Beacon 2401.500 USB
AO-40 01 Sep 22:29:16 02:04:32 30° 126° (SE) 03:28:41 Beacon 2401.320
FUNcube-1 01 Sep 22:58:01 23:01:46 32° 263° (W) 23:05:35 145.950 - 145.970 MHz USB
Saudisat 1A 01 Sep 22:58:56 23:02:24 22° 310° (NW) 23:05:53 436.775 MHz
MaSat-1 01 Sep 23:21:18 23:24:36 22° 258° (WSW) 23:27:32 437.345 MHz
Oscar 10/S400 02 Sep 00:02:46 00:48:29 64° 201° (SSW) 10:10:24 145.825 - 145.975 CW/USB, Beacon 145.810 USB
KITSAT 1 02 Sep 00:11:58 00:19:24 39° 308° (NW) 00:26:53 435.175 FM
Sapphire 02 Sep 00:48:54 00:53:11 23° 52° (NE) 00:57:28 437.095 MHz 1200 baud AX-25 AFSK
PCSat 02 Sep 01:17:33 01:22:43 42° 58° (ENE) 01:27:49 145.825 MHz
Oscar 19 02 Sep 01:22:16 01:26:20 23° 95° (E) 01:30:22 437.125 CW, 437.150 USB
AO-Echo 02 Sep 01:32:32 01:33:46 11° 91° (E) 01:35:00 ?
Oscar 16 02 Sep 01:56:48 02:01:53 53° 100° (E) 02:06:56 437.025 USB, Beacon 2401.1428
SO-50 02 Sep 01:59:40 02:02:58 21° 110° (ESE) 02:06:19 436.795 FM
ITAMSAT 1 02 Sep 02:00:13 02:04:14 22° 95° (E) 02:08:14 435.822 SSB
Uribyol 2 02 Sep 02:09:08 02:13:40 30° 97° (E) 02:18:10 436.500 FM
TMSAT-1 02 Sep 02:24:17 02:26:00 11° 91° (E) 02:27:42 436.925 FM
JAS-1B 02 Sep 02:26:25 02:32:18 38° 96° (E) 02:37:35 435.800 - 435.900 CW/SSB
AO-27 02 Sep 02:29:11 02:34:10 45° 99° (E) 02:39:06 436.795 MHz FM
Sapphire 02 Sep 02:31:39 02:36:49 46° 249° (WSW) 02:41:57 437.095 MHz 1200 baud AX-25 AFSK
OPAL 02 Sep 02:58:48 03:01:15 14° 60° (ENE) 03:03:42 ?
Oscar 19 02 Sep 03:00:58 03:05:43 37° 290° (WNW) 03:10:26 437.125 CW, 437.150 USB
PCSat 02 Sep 03:01:38 03:05:48 23° 254° (WSW) 03:09:57 145.825 MHz
AO-Echo 02 Sep 03:08:16 03:12:54 62° 286° (WNW) 03:17:35 ?
Gurwin Techsat 1B 02 Sep 03:11:17 03:16:28 51° 100° (E) 03:21:36 435.225 FM
Oscar 16 02 Sep 03:37:30 03:40:46 17° 296° (WNW) 03:44:01 437.025 USB, Beacon 2401.1428
ITAMSAT 1 02 Sep 03:39:02 03:43:47 38° 290° (WNW) 03:48:32 435.822 SSB
SO-50 02 Sep 03:39:08 03:43:15 35° 306° (NW) 03:47:28 436.795 FM
UOSAT-12 02 Sep 03:45:15 03:48:32 20° 110° (ESE) 03:51:53 437.025 FM, 437.400 FM
Uribyol 2 02 Sep 03:48:35 03:53:01 29° 292° (WNW) 03:57:27 436.500 FM
TMSAT-1 02 Sep 04:01:06 04:06:23 73° 285° (WNW) 04:11:39 436.925 FM
Uosat F 02 Sep 04:01:58 04:05:28 19° 94° (E) 04:08:57 435.120 FM
AO-27 02 Sep 04:09:38 04:13:18 20° 294° (WNW) 04:16:59 436.795 MHz FM
JAS-1B 02 Sep 04:17:26 04:22:43 27° 297° (WNW) 04:27:30 435.800 - 435.900 CW/SSB
AO-7 02 Sep 04:29:55 04:37:45 45° 101° (E) 04:45:32 29.400 - 29.500 MHz
OPAL 02 Sep 04:34:27 04:39:29 69° 256° (WSW) 04:44:37 ?
Gurwin Techsat 1B 02 Sep 04:52:28 04:55:59 18° 295° (WNW) 04:59:30 435.225 FM
JAS-2 02 Sep 05:19:17 05:21:27 12° 93° (E) 05:23:40 435.800 - 435.900 CW/SSB, 435.910 FM
UOSAT-12 02 Sep 05:24:02 05:28:22 40° 305° (NW) 05:32:47 437.025 FM, 437.400 FM
Uosat F 02 Sep 05:39:41 05:44:23 42° 289° (WNW) 05:49:04 435.120 FM
Saudisat 1A 02 Sep 05:48:44 05:51:25 16° 47° (NE) 05:54:04 436.775 MHz
KITSAT 1 02 Sep 06:13:32 06:18:14 16° 37° (NE) 06:22:54 435.175 FM
STRAND 1 02 Sep 06:22:44 06:27:41 55° 73° (ENE) 06:32:39 ?
AO-7 02 Sep 06:22:56 06:30:20 38° 297° (WNW) 06:37:43 29.400 - 29.500 MHz
RS-15 02 Sep 06:30:04 06:40:32 49° 110° (ESE) 06:50:47 29.354 - 29.394 USB, Beacon 29.352 USB
Hamsat 02 Sep 06:37:27 06:41:49 87° 102° (ESE) 06:46:06 145.90 MHz
JAS-2 02 Sep 07:01:34 07:06:52 70° 285° (WNW) 07:12:42 435.800 - 435.900 CW/SSB, 435.910 FM
SO-67 02 Sep 07:13:57 07:16:54 26° 96° (E) 07:19:49 435.3500 MHz FM
Saudisat 1A 02 Sep 07:27:00 07:31:19 56° 244° (WSW) 07:35:37 436.775 MHz
STRAND 1 02 Sep 08:04:21 08:07:10 15° 267° (W) 08:10:00 ?
KITSAT 1 02 Sep 08:07:12 08:15:15 67° 59° (ENE) 08:23:15 435.175 FM
ISS 02 Sep 08:18:13 08:20:46 21° 130° (SE) 08:23:20 145.800 FM
RS-15 02 Sep 08:42:25 08:52:52 46° 310° (NW) 09:03:15 29.354 - 29.394 USB, Beacon 29.352 USB
SO-67 02 Sep 08:47:48 08:49:41 14° 291° (WNW) 08:51:35 435.3500 MHz FM
HO-68 02 Sep 08:54:41 09:00:54 31° 97° (E) 09:07:05 435.675 MHz FM
ISS 02 Sep 09:54:17 09:57:20 33° 325° (NW) 10:00:24 145.800 FM
PANSAT 02 Sep 10:02:19 10:04:41 16° 164° (SSE) 10:07:02 not established
KITSAT 1 02 Sep 10:03:56 10:09:54 23° 256° (WSW) 10:15:53 435.175 FM
UKube-1 02 Sep 10:12:24 10:16:46 88° 103° (ESE) 10:21:06 145.840 MHz, 145.915 MHz
Oscar 11 02 Sep 10:15:32 10:19:52 62° 101° (E) 10:24:10 145.825 FM, Beacon 2401.500 USB
SO-50 02 Sep 10:34:05 10:36:16 13° 44° (NE) 10:38:28 436.795 FM
HO-68 02 Sep 10:41:58 10:48:39 45° 293° (WNW) 10:55:21 435.675 MHz FM
FUNcube-1 02 Sep 10:48:57 10:53:28 57° 100° (E) 10:58:00 145.950 - 145.970 MHz USB
RS-15 02 Sep 11:03:11 11:09:07 16° 341° (NNW) 11:15:05 29.354 - 29.394 USB, Beacon 29.352 USB
MaSat-1 02 Sep 11:29:04 11:32:42 21° 102° (ESE) 11:36:30 437.345 MHz
PANSAT 02 Sep 11:41:06 11:44:19 25° 176° (S) 11:47:33 not established
Oscar 11 02 Sep 11:54:25 11:55:29 11° 296° (WNW) 11:56:32 145.825 FM, Beacon 2401.500 USB
SO-50 02 Sep 12:12:37 12:17:27 86° 241° (WSW) 12:22:18 436.795 FM
UOSAT-12 02 Sep 12:18:16 12:19:41 11° 42° (NE) 12:21:05 437.025 FM, 437.400 FM
FUNcube-1 02 Sep 12:27:17 12:29:21 13° 295° (WNW) 12:31:25 145.950 - 145.970 MHz USB
Oscar 19 02 Sep 12:36:40 12:40:53 26° 68° (ENE) 12:45:07 437.125 CW, 437.150 USB
AO-Echo 02 Sep 12:42:55 12:45:06 13° 64° (ENE) 12:47:16 ?
MaSat-1 02 Sep 13:04:44 13:09:21 41° 299° (WNW) 13:14:13 437.345 MHz
JAS-1B 02 Sep 13:05:19 13:13:48 37° 66° (ENE) 13:21:29 435.800 - 435.900 CW/SSB
Oscar 16 02 Sep 13:11:04 13:16:07 59° 73° (ENE) 13:21:13 437.025 USB, Beacon 2401.1428
ITAMSAT 1 02 Sep 13:15:46 13:20:02 27° 68° (ENE) 13:24:18 435.822 SSB
PANSAT 02 Sep 13:21:01 13:24:02 22° 189° (S) 13:27:03 not established
RS-15 02 Sep 13:22:05 13:28:16 16° 20° (NNE) 13:34:30 29.354 - 29.394 USB, Beacon 29.352 USB
Uribyol 2 02 Sep 13:24:32 13:29:08 34° 70° (ENE) 13:33:46 436.500 FM
TMSAT-1 02 Sep 13:42:06 13:45:06 16° 64° (ENE) 13:48:07 436.925 FM
AO-27 02 Sep 13:44:44 13:49:45 53° 73° (ENE) 13:54:46 436.795 MHz FM
UOSAT-12 02 Sep 13:55:49 14:00:34 83° 60° (ENE) 14:05:13 437.025 FM, 437.400 FM
Oscar 19 02 Sep 14:15:25 14:20:02 33° 263° (W) 14:24:42 437.125 CW, 437.150 USB
AO-Echo 02 Sep 14:18:21 14:23:21 65° 259° (WSW) 14:28:12 ?
Gurwin Techsat 1B 02 Sep 14:29:42 14:34:55 62° 74° (ENE) 14:40:10 435.225 FM
ISS 02 Sep 14:49:20 14:51:08 14° 25° (NNE) 14:52:56 145.800 FM
Oscar 16 02 Sep 14:53:11 14:55:49 14° 268° (W) 14:58:28 437.025 USB, Beacon 2401.1428
JAS-1B 02 Sep 14:54:24 15:03:55 55° 260° (W) 15:12:35 435.800 - 435.900 CW/SSB
ITAMSAT 1 02 Sep 14:54:47 14:59:22 32° 263° (W) 15:03:58 435.822 SSB
PANSAT 02 Sep 15:03:16 15:03:35 10° 201° (SSW) 15:03:54 not established
Uribyol 2 02 Sep 15:04:29 15:08:37 24° 264° (W) 15:12:47 436.500 FM
Uosat F 02 Sep 15:12:56 15:16:36 21° 66° (ENE) 15:20:16 435.120 FM
TMSAT-1 02 Sep 15:19:16 15:24:28 61° 259° (W) 15:29:43 436.925 FM
AO-7 02 Sep 15:25:51 15:33:43 49° 65° (ENE) 15:41:35 29.400 - 29.500 MHz
AO-27 02 Sep 15:26:26 15:29:31 16° 267° (W) 15:32:38 436.795 MHz FM
Sapphire 02 Sep 15:27:51 15:32:38 33° 109° (ESE) 15:37:27 437.095 MHz 1200 baud AX-25 AFSK
RS-15 02 Sep 15:33:52 15:44:27 47° 50° (NE) 15:55:23 29.354 - 29.394 USB, Beacon 29.352 USB
PCSat 02 Sep 15:56:17 16:01:38 68° 114° (ESE) 16:07:01 145.825 MHz
Gurwin Techsat 1B 02 Sep 16:12:38 16:15:16 14° 268° (W) 16:17:54 435.225 FM
ISS 02 Sep 16:24:57 16:28:17 89° 223° (SW) 16:31:36 145.800 FM
OPAL 02 Sep 16:47:11 16:52:05 40° 100° (E) 16:56:55 ?
Uosat F 02 Sep 16:50:24 16:55:05 40° 261° (W) 16:59:47 435.120 FM
Sapphire 02 Sep 17:11:17 17:16:01 30° 305° (NW) 17:20:46 437.095 MHz 1200 baud AX-25 AFSK
JAS-2 02 Sep 17:11:31 17:16:56 35° 71° (ENE) 17:21:52 435.800 - 435.900 CW/SSB, 435.910 FM
AO-7 02 Sep 17:19:14 17:26:35 34° 262° (W) 17:33:59 29.400 - 29.500 MHz
Hamsat 02 Sep 17:28:00 17:32:05 43° 73° (ENE) 17:36:13 145.90 MHz
PCSat 02 Sep 17:42:05 17:45:33 17° 311° (NW) 17:49:02 145.825 MHz
RS-15 02 Sep 17:46:20 17:56:49 49° 250° (WSW) 18:07:45 29.354 - 29.394 USB, Beacon 29.352 USB
